This is the latest recevied weather packets stored in our database for station/object N8HKU-5. If no packets are shown the sender has not sent any weather packets the latest 10 day(s).
| Time | Temp. | Humidity | Pressure | Rain* | Wind** | Luminosity | Snow |
|---|---|---|---|---|---|---|---|
| 1778114553 | 10° C | 55% | 1010.5 hPa | 0 mm | - | - | - |
| 1778113953 | 10.56° C | 52% | 1010.4 hPa | 0 mm | - | - | - |
| 1778113353 | 10.56° C | 51% | 1010.3 hPa | 0 mm | - | - | - |
| 1778112753 | 11.11° C | 48% | 1010.2 hPa | 0 mm | - | - | - |
| 1778112153 | 11.11° C | 47% | 1010.3 hPa | 0 mm | - | - | - |
| 1778111553 | 11.11° C | 47% | 1010.2 hPa | 0 mm | - | - | - |
| 1778110953 | 11.11° C | 47% | 1010.2 hPa | 0 mm | - | - | - |
| 1778110353 | 11.11° C | 48% | 1010.3 hPa | 0 mm | - | - | - |
| 1778109753 | 11.67° C | 47% | 1010.2 hPa | 0 mm | - | - | - |
| 1778109153 | 11.67° C | 46% | 1010 hPa | 0 mm | - | - | - |
| 1778108553 | 11.67° C | 45% | 1010 hPa | 0 mm | - | - | - |
| 1778107953 | 11.67° C | 44% | 1009.9 hPa | 0 mm | - | - | - |
| 1778107355 | 12.22° C | 47% | 1010.1 hPa | 0 mm | - | - | - |
| 1778106754 | 12.22° C | 44% | 1010.1 hPa | 0 mm | - | - | - |
| 1778106155 | 12.22° C | 44% | 1010.1 hPa | 0 mm | - | - | - |
| 1778105554 | 12.78° C | 46% | 1010.1 hPa | 0 mm | - | - | - |
| 1778104954 | 12.78° C | 44% | 1010.1 hPa | 0 mm | - | - | - |
| 1778104354 | 12.78° C | 44% | 1010.1 hPa | 0 mm | - | - | - |
| 1778103754 | 12.78° C | 43% | 1010 hPa | 0 mm | - | - | - |
| 1778103154 | 12.78° C | 43% | 1009.9 hPa | 0 mm | - | - | - |
| 1778102554 | 13.33° C | 41% | 1009.9 hPa | 0 mm | - | - | - |
| 1778101955 | 12.78° C | 44% | 1009.9 hPa | 0 mm | - | - | - |
| 1778101354 | 12.78° C | 42% | 1010 hPa | 0 mm | - | - | - |
| 1778100754 | 13.33° C | 40% | 1009.9 hPa | 0 mm | - | - | - |
| 1778100156 | 12.78° C | 46% | 1009.8 hPa | 0 mm | - | - | - |
* Rain latest hour (hover to see other rain measurements)
** Current wind speed in m/s (hover to see current wind gust speed)